Decatur, IL

8:55 AM CDT on August 29, 2016 (GMT -0500)
Decatur

Weather History for KDEC - March, 2013

Change the Weather History Date:

Sunday, March 24, 2013

  Actual Average Record
Temperature  
Mean Temperature 33 °F 45 °F  
Max Temperature 35 °F 55 °F 77 °F (2007)
Min Temperature 30 °F 34 °F 19 °F (2014)
Degree Days  
Heating Degree Days 32 20  
Month to date heating degree days 725 593  
Since 1 July heating degree days 4695 4850  
Cooling Degree Days 0 0  
Month to date cooling degree days 0 0  
Year to date cooling degree days 0 0  
Moisture  
Dew Point 28 °F    
Average Humidity 78    
Maximum Humidity 92    
Minimum Humidity 64    
Precipitation  
Precipitation 0.00 in 0.09 in 0.66 in (2016)
Month to date precipitation 0.44 1.98  
Year to date precipitation 5.08 5.70  
Sea Level Pressure  
Sea Level Pressure 29.69 in    
Wind  
Wind Speed 20 mph (NNE)    
Max Wind Speed 31 mph    
Max Gust Speed 39 mph    
Visibility 3 miles    
Events Fog , Snow    
T = Trace of Precipitation, MM = Missing Value Source: NWS Daily Summary

Daily Weather History Graph

Daily Weather History Graph

Search for Another Location

Airport or City:

Trip Planner

Search our weather history database for the weather conditions in past years. The results will help you decide how hot, cold, wet, or windy it might be!

Date:

Astronomy

Mar. 24, 2013 Rise Set
Actual Time 6:52 AM CDT 7:11 PM CDT
Civil Twilight 6:25 AM CDT 7:38 PM CDT
Nautical Twilight 5:53 AM CDT 8:10 PM CDT
Astronomical Twilight 5:20 AM CDT 8:43 PM CDT
Moon 4:40 PM CDT (3/24) 5:02 AM CDT (3/24)
Length of Visible Light 13h 13m
Length of Day
12h 19m
Waxing Gibbous, 92% of the Moon is Illuminated
Mar 24
Waxing Gibbous
Mar 27
Full
Apr 2
Last Quarter
Apr 10
New
Apr 18
First Quarter

Hourly Weather History & Observations

Time (CDT) Temp. Windchill Dew Point Humidity Pressure Visibility Wind Dir Wind Speed Gust Speed Precip Events Conditions
12:54 AM 35.1 °F 25.5 °F 24.1 °F 64% 29.91 in 10.0 mi NNE 15.0 mph - N/A   Overcast
1:54 AM 34.0 °F 23.8 °F 24.1 °F 67% 29.92 in 10.0 mi NNE 16.1 mph - N/A   Overcast
2:54 AM 32.0 °F 20.8 °F 25.0 °F 75% 29.93 in 10.0 mi NE 17.3 mph - N/A   Overcast
3:51 AM 30.2 °F 17.4 °F 26.6 °F 86% 29.88 in 2.5 mi NE 20.7 mph - 0.00 in Snow Light Snow
3:54 AM 30.9 °F 19.8 °F 27.0 °F 85% 29.89 in 1.8 mi NE 16.1 mph - 0.00 in Snow Light Snow
4:16 AM 30.2 °F 18.5 °F 28.4 °F 93% 29.85 in 1.0 mi NE 17.3 mph - 0.00 in Snow Light Snow
4:37 AM 30.2 °F 17.8 °F 28.4 °F 93% 29.82 in 1.5 mi NE 19.6 mph - 0.00 in Snow Light Snow
4:48 AM 30.2 °F 17.8 °F 28.4 °F 93% 29.81 in 2.0 mi NE 19.6 mph - 0.00 in Snow Light Snow
4:49 AM 30.0 °F 17.9 °F 28.0 °F 92% 29.82 in 2.0 mi NE 18.4 mph - 0.00 in Snow Light Snow
4:56 AM 30.2 °F 17.4 °F 28.4 °F 93% 29.80 in 3.0 mi ENE 20.7 mph 27.6 mph 0.00 in Snow Light Snow
5:09 AM 30.2 °F 18.1 °F 26.6 °F 86% 29.83 in 4.0 mi NE 18.4 mph - 0.00 in Snow Light Snow
5:31 AM 30.2 °F 18.1 °F 26.6 °F 86% 29.80 in 1.0 mi ENE 18.4 mph - 0.00 in Snow Light Snow
5:50 AM 30.2 °F 18.5 °F 26.6 °F 86% 29.80 in 3.0 mi ENE 17.3 mph - 0.00 in Snow Light Snow
5:54 AM 30.0 °F 18.3 °F 27.0 °F 88% 29.81 in 3.0 mi NE 17.3 mph - 0.00 in Snow Light Snow
6:54 AM 30.0 °F 18.3 °F 27.0 °F 88% 29.78 in 7.0 mi NE 17.3 mph - 0.00 in   Overcast
7:54 AM 30.9 °F 18.7 °F 28.0 °F 89% 29.75 in 5.0 mi ENE 19.6 mph 25.3 mph N/A   Overcast
8:54 AM 32.0 °F 19.8 °F 28.9 °F 88% 29.71 in 5.0 mi ENE 20.7 mph - N/A   Overcast
9:42 AM 33.8 °F 22.5 °F 28.4 °F 81% 29.65 in 5.0 mi ENE 19.6 mph 29.9 mph N/A   Overcast
9:51 AM 33.8 °F 21.3 °F 28.4 °F 81% 29.65 in 5.0 mi ENE 24.2 mph 29.9 mph N/A   Overcast
9:54 AM 33.1 °F 20.9 °F 28.9 °F 85% 29.66 in 5.0 mi ENE 21.9 mph 29.9 mph N/A   Overcast
10:16 AM 33.8 °F 21.3 °F 28.4 °F 81% 29.63 in 5.0 mi ENE 24.2 mph 31.1 mph N/A   Overcast
10:54 AM 33.1 °F 20.6 °F 28.9 °F 85% 29.63 in 5.0 mi ENE 23.0 mph - N/A   Overcast
11:28 AM 33.8 °F 21.0 °F 30.2 °F 87% 29.56 in 3.0 mi NE 25.3 mph 33.4 mph 0.00 in Snow Light Snow
11:36 AM 33.8 °F 20.3 °F 30.2 °F 87% 29.54 in 2.5 mi NE 28.8 mph 35.7 mph 0.00 in Snow Light Snow
11:45 AM 33.8 °F 20.5 °F 30.2 °F 87% 29.54 in 3.0 mi NE 27.6 mph 38.0 mph 0.00 in   Overcast
11:54 AM 33.1 °F 20.6 °F 30.0 °F 89% 29.56 in 3.0 mi NE 23.0 mph 31.1 mph 0.00 in Snow Light Snow
12:05 PM 33.8 °F 21.9 °F 30.2 °F 87% 29.58 in 2.5 mi NE 21.9 mph - 0.00 in Snow Light Snow
12:09 PM 33.8 °F 22.8 °F 30.2 °F 87% 29.60 in 0.8 mi NE 18.4 mph - 0.00 in Snow Light Snow
12:30 PM 33.8 °F 26.4 °F 30.2 °F 87% 29.63 in 0.2 mi North 9.2 mph - 0.00 in Fog , Snow Snow
12:54 PM 32.0 °F 21.2 °F 30.0 °F 92% 29.62 in 0.2 mi North 16.1 mph 23.0 mph 0.00 in Fog Fog
2:42 PM 30.2 °F 17.1 °F 28.4 °F 93% 29.56 in 0.2 mi NNE 21.9 mph 28.8 mph 0.00 in Fog Light Freezing Fog
2:54 PM 30.9 °F 18.4 °F 28.9 °F 92% 29.58 in 0.2 mi NNE 20.7 mph - 0.00 in Fog Light Freezing Fog
3:52 PM 30.2 °F 16.2 °F 28.4 °F 93% 29.53 in 0.2 mi NNE 25.3 mph 33.4 mph N/A Fog Light Freezing Fog
3:54 PM 30.9 °F 17.5 °F 28.9 °F 92% 29.56 in 0.2 mi NNE 24.2 mph 32.2 mph N/A Fog Light Freezing Fog
4:34 PM 30.2 °F 15.9 °F 28.4 °F 93% 29.54 in 0.2 mi NNE 26.5 mph 34.5 mph N/A Fog Light Freezing Fog
4:54 PM 30.9 °F 16.7 °F 28.9 °F 92% 29.56 in 0.2 mi NNE 27.6 mph 36.8 mph N/A Fog Light Freezing Fog
5:22 PM 30.2 °F 15.9 °F 28.4 °F 93% 29.55 in 0.2 mi NNE 26.5 mph - N/A Fog Light Freezing Fog
5:54 PM 30.9 °F 17.2 °F 28.9 °F 92% 29.57 in 0.2 mi NNE 25.3 mph 32.2 mph N/A Fog Light Freezing Fog
6:54 PM 30.9 °F 18.7 °F 28.9 °F 92% 29.61 in 0.5 mi North 19.6 mph 27.6 mph N/A Fog Light Freezing Fog
7:25 PM 30.2 °F 18.5 °F 28.4 °F 93% 29.61 in 1.0 mi North 17.3 mph 27.6 mph N/A   Overcast
7:54 PM 30.9 °F 19.1 °F 28.9 °F 92% 29.65 in 1.0 mi North 18.4 mph - N/A   Overcast
8:54 PM 30.9 °F 18.7 °F 28.9 °F 92% 29.67 in 1.0 mi North 19.6 mph 27.6 mph N/A   Overcast
9:07 PM 30.2 °F 19.3 °F 28.4 °F 93% 29.66 in 0.8 mi North 15.0 mph 24.2 mph N/A   Overcast
9:54 PM 30.9 °F 18.1 °F 28.9 °F 92% 29.68 in 0.8 mi North 21.9 mph - N/A   Mist
10:19 PM 30.2 °F 16.5 °F 28.4 °F 93% 29.67 in 1.0 mi NNW 24.2 mph 29.9 mph N/A   Overcast
10:40 PM 30.2 °F 17.1 °F 28.4 °F 93% 29.67 in 1.5 mi NNW 21.9 mph 28.8 mph N/A   Overcast
10:54 PM 30.9 °F 19.4 °F 28.0 °F 89% 29.70 in 1.5 mi North 17.3 mph 27.6 mph N/A   Overcast
11:54 PM 32.0 °F 20.8 °F 28.9 °F 88% 29.71 in 1.0 mi NNW 17.3 mph 31.1 mph N/A   Overcast